105P/Singer Brewster (2025)

Japanese version
Home page
Updated on March 29, 2025

---------------------------------------------------------------------

* Profile

* Pictures

* Orbital Elements

Epoch 2024 Mar. 31.0 TT = JDT 2460400.5
T 2025 Jan. 22.84493 TT                                 Rudenko
q   2.0519140            (2000.0)            P               Q
n   0.15238424     Peri.   46.36311     -0.52060096     +0.85311458
a   3.4714375      Node   192.39743     -0.82203813     -0.51165806
e   0.4089152      Incl.    9.16821     -0.23071183     -0.10198799
P   6.47
>From 469 observations 2018 Jan. 1-2024 Feb. 13, mean residual 0".7.
     Nongravitational parameters A1 = -0.63, A2 = +0.1443.

* Magnitudes Graph

        m1 = 10.0 + 5 log d + 20.0 log r(t + 120)

        * Gray curve is:  m1 = 8.5 + 5 log d + 20.0 log r

---------------------------------------------------------------------

The orbital elements are published on M.P.E.C. 2024-D33.
The magnitudes graphs are made with Comet for Windows.

---------------------------------------------------------------------

Copyright(C) Seiichi Yoshida (comet@aerith.net). All rights reserved.